Lid_Strength_Index
4 4 4 3 3 3 2 2 1 1 1 2 1 1 1 0 0 1 1 0 0 1 1 0 -1 -0 -1 -1 -1 -1 -1 -0 -0
5 4 4 3 3 2 2 2 2 2 1 1 1 1 1 1 0 0 1 0 -0 0 -0 -0 -0 -0 -0 -1 -1 -1 -1 -0 0
5 4 4 3 3 2 2 2 1 1 1 2 1 1 1 1 1 0 0 0 0 0 -0 -0 -0 -0 -0 -0 -1 -1 -0 -0 -0
6 5 4 3 3 2 2 2 2 2 2 1 1 1 1 1 1 0 0 0 0 0 -0 -0 -0 -0 -0 -0 -0 -0 -0 -0 -0
5 5 4 3 3 2 2 2 2 2 2 2 1 1 1 1 1 0 1 1 0 -0 0 -0 -0 -0 -0 -0 -0 -0 0 0 1
5 5 4 3 3 3 2 2 2 2 2 1 1 1 1 1 1 1 1 1 0 0 0 0 -0 -0 0 0 0 -0 -0 0 1
5 5 5 4 4 3 3 2 2 2 2 1 1 1 1 1 1 1 1 1 0 0 0 0 0 0 0 0 -0 0 -0 1 1
6 6 5 4 4 4 3 3 2 2 1 1 1 1 1 1 1 1 0 1 1 0 0 0 0 0 0 -0 0 0 0 1 2
6 5 4 4 4 3 3 3 2 2 2 1 1 2 2 1 1 1 1 1 1 1 1 0 0 1 0 1 1 2 2 2 3
6 5 4 4 4 3 3 3 2 2 2 1 1 1 1 1 1 1 1 1 1 1 1 1 1 1 1 1 0 4 4 3 3
5 5 4 4 3 3 2 2 2 2 1 2 2 2 2 1 1 1 1 1 1 1 1 1 1 1 1 1 1 5 5 4 2
4 4 3 3 2 2 2 2 2 2 2 2 2 2 2 1 1 2 1 2 1 1 1 1 1 1 1 1 1 6 6 5 3
3 3 3 3 2 2 2 2 1 2 2 2 2 2 2 1 1 1 2 1 1 1 1 1 1 1 1 4 3 5 5 5 3
3 3 3 2 2 2 2 1 1 2 2 2 1 1 1 1 1 1 1 1 1 1 1 1 2 3 3 3 3 3 5 5 5
3 3 3 2 3 2 2 1 2 2 2 1 1 1 1 1 1 1 1 2 2 3 4 4 4 4 4 3 2 4 5 5 5
3 4 4 4 2 2 1 1 1 2 1 1 1 1 1 1 1 1 1 2 3 4 3 3 4 3 3 3 2 2 5 6 6
3 3 4 4 4 4 3 2 1 1 1 1 1 2 2 1 2 2 1 2 2 3 3 3 3 3 3 2 2 3 4 4 5
3 4 4 5 4 3 3 2 2 1 0 1 2 2 2 2 2 2 2 1 2 2 1 2 2 2 2 3 4 4 6 5 4
3 3 3 2 2 2 2 2 1 1 0 1 1 2 2 2 2 2 2 2 2 9 9 9 10 10 4 2 6 9 9 11 10
3 2 2 2 2 2 2 2 2 1 1 1 1 2 2 2 3 2 2 2 3 3 6 9 11 11 11 10 8 11 12 11 11